Vorticity
nan nan nan nan nan nan nan nan nan nan nan nan nan nan nan nan nan nan nan nan nan nan nan nan nan nan nan nan nan nan nan nan nan nan nan nan nan nan nan nan nan nan nan
nan 9 9 8 10 9 9 9 9 10 9 10 7 7 10 10 9 10 8 9 9 8 9 8 8 11 9 9 8 8 11 14 11 7 10 9 6 8 8 9 9 10 nan
nan 8 9 9 9 9 11 10 10 10 10 9 8 7 8 9 7 8 11 11 9 8 8 8 8 8 8 9 9 13 10 10 8 10 10 8 7 8 11 11 9 9 nan
nan 8 8 10 9 10 10 10 10 10 9 9 10 9 8 8 7 8 9 11 11 7 8 8 8 10 9 7 9 10 9 11 10 8 9 9 10 7 7 7 8 10 nan
nan 9 12 12 10 9 10 10 10 8 10 11 11 10 9 7 9 8 9 9 11 11 9 9 6 5 6 13 13 10 10 8 10 7 9 7 8 8 9 8 8 10 nan
nan 7 13 12 12 10 9 9 9 9 10 9 10 11 8 11 15 9 5 8 7 8 6 7 9 7 3 7 8 6 10 9 5 8 9 7 5 8 6 8 10 8 nan
nan 9 12 10 11 12 10 10 9 9 8 9 11 10 8 12 12 6 2 9 9 8 9 8 7 7 9 6 7 9 7 4 5 7 7 8 6 7 7 7 9 9 nan
nan 10 9 10 10 12 13 11 9 10 9 8 9 10 8 12 11 7 7 8 10 11 8 6 9 7 9 7 7 9 11 13 12 7 6 7 8 8 9 10 12 10 nan
nan 9 10 11 11 10 13 13 11 10 9 10 10 11 8 11 11 7 8 7 9 8 8 9 5 6 7 7 8 8 9 15 10 9 8 8 9 10 8 9 10 11 nan
nan 11 9 13 12 11 14 14 13 13 10 10 12 10 10 10 10 7 4 7 9 7 7 3 4 14 8 6 9 9 9 7 11 13 12 11 12 12 5 5 7 10 nan
nan 14 15 15 14 10 11 10 2 10 18 17 14 11 10 11 11 6 5 4 8 8 9 9 14 11 5 7 7 10 9 10 12 6 7 10 11 9 11 11 11 8 nan
nan 15 18 14 14 14 8 4 8 9 2 8 16 13 12 12 11 10 6 8 12 9 8 13 18 14 7 5 6 10 10 9 6 7 9 9 10 10 9 9 11 10 nan
nan 16 13 11 10 9 7 3 6 5 8 11 10 11 13 10 12 12 6 9 11 10 10 13 16 7 7 10 11 8 10 8 8 8 8 8 10 12 11 9 9 12 nan
nan 11 11 10 9 6 3 7 10 10 14 11 7 9 11 10 10 11 10 6 9 11 12 8 2 3 5 15 18 10 8 8 8 9 9 10 9 9 11 12 9 10 nan
nan 12 9 10 10 7 9 12 14 13 13 6 8 11 14 16 16 14 13 10 12 17 7 8 7 8 9 9 8 8 12 12 8 7 7 8 9 10 11 10 10 10 nan
nan 11 11 11 11 10 9 0 9 21 17 20 16 12 16 17 18 13 10 13 15 15 6 8 9 9 9 9 9 10 11 9 10 9 8 8 9 10 10 11 11 9 nan
nan 9 10 11 12 12 11 10 0 2 9 19 18 16 20 18 11 9 9 11 8 4 8 8 10 10 10 10 8 8 8 8 12 11 9 9 9 11 9 8 11 10 nan
nan 11 10 13 12 11 10 10 10 10 3 2 12 20 16 15 11 9 7 2 4 7 11 9 10 10 11 10 9 9 9 10 10 9 9 9 10 10 9 10 10 10 nan
nan 13 10 13 16 14 13 13 12 10 11 11 7 6 9 14 14 12 4 0 8 10 9 8 10 11 11 9 8 8 9 10 10 12 11 9 10 9 9 9 11 13 nan
nan 13 13 12 12 12 13 13 12 12 14 11 9 8 9 8 9 6 7 11 8 9 10 11 11 10 9 9 9 11 12 13 11 10 8 8 9 10 9 10 10 11 nan
nan 11 11 10 12 11 11 13 12 13 12 11 11 14 11 6 10 10 10 9 9 10 12 12 10 9 9 9 10 11 11 10 11 11 9 10 10 10 10 10 10 11 nan
nan 12 9 9 11 13 9 10 11 12 13 11 10 15 10 7 10 10 10 10 11 11 12 10 9 9 8 10 10 10 11 10 11 12 11 10 10 10 10 9 11 11 nan
nan 11 11 10 11 10 12 12 11 13 12 11 11 12 9 9 10 10 11 12 13 11 9 9 9 8 10 10 10 11 10 10 13 13 11 10 10 10 10 11 11 11 nan
nan 12 12 11 11 12 14 11 13 13 11 11 11 11 11 9 10 12 10 11 11 10 8 8 9 8 9 11 10 10 16 14 12 15 12 9 13 10 6 11 11 11 nan
nan 13 12 12 12 15 13 10 12 12 11 11 10 11 12 11 10 11 9 9 9 9 8 8 11 13 13 7 5 13 20 16 6 13 15 9 9 10 11 10 10 11 nan
nan nan nan nan nan nan nan nan nan nan nan nan nan nan nan nan nan nan nan nan nan nan nan nan nan nan nan nan nan nan nan nan nan nan nan nan nan nan nan nan nan nan nan
CAPE
2117 2335 2426 2470 2553 2509 2368 2739 2768 2291 2146 1743 1189 1219 1072 807 550 160 36 0 0 0 0 0 0 0 0 0 0 0 0 0 0 0 0 0 0 0 0 0 0 0 0
1947 2335 2280 2427 2303 2218 2242 2603 2610 2158 1927 1457 1126 899 795 565 302 74 0 0 0 0 0 0 0 0 0 0 0 0 0 0 0 0 0 0 0 0 0 0 0 0 0
1937 2152 2093 2412 2383 2195 2494 2519 2501 2175 1803 1417 1086 1089 458 56 9 0 0 0 0 0 0 0 0 0 0 0 0 0 0 0 0 0 0 0 0 0 0 0 0 0 0
2227 2168 2710 2567 2449 2534 2650 2646 2438 2096 1848 1551 1246 748 163 18 0 0 0 0 0 0 0 0 0 0 0 0 0 0 0 0 0 0 0 0 0 0 0 0 0 0 0
2718 2700 2491 2609 2139 2526 2543 2536 2432 2215 1575 994 706 485 382 32 0 0 0 0 0 0 0 0 0 0 0 0 0 0 0 0 0 0 0 0 0 0 0 0 0 0 0
3163 3189 3272 3741 2771 2469 2582 2498 2334 1802 1353 833 653 531 121 0 0 0 0 0 0 0 0 0 0 0 0 0 0 0 0 0 0 1 0 0 0 0 0 0 0 0 0
3554 2859 3332 3558 2939 2784 2595 2511 2138 1405 1057 639 745 523 285 5 0 0 0 0 0 0 0 0 0 0 0 0 0 0 0 0 0 0 3 4 4 0 0 0 0 1 0
3043 2490 2907 3148 3013 2922 2772 2455 1906 1273 1138 1034 861 567 347 1 0 0 0 0 0 0 0 0 0 0 0 0 0 0 0 0 0 2 0 8 0 0 0 0 0 8 4
2786 2679 2504 2539 2753 2457 2387 2004 1575 1181 1161 1100 778 539 320 0 0 0 0 0 0 0 0 0 0 0 0 0 0 0 3 3 0 0 0 0 0 0 0 0 0 0 0
3252 3392 3076 2906 2418 2309 2032 1873 1722 1131 1016 1049 585 452 186 0 0 0 0 0 0 0 0 0 0 0 0 0 0 0 13 27 19 16 29 0 0 0 0 0 0 0 0
3650 3736 4145 3521 2851 2452 631 389 180 160 809 791 556 393 101 0 0 0 0 0 0 0 0 0 0 0 0 0 0 0 19 18 7 5 7 0 0 0 0 0 0 0 0
3930 3803 3193 2593 1151 427 197 24 0 0 0 29 348 472 56 1 0 0 0 0 0 0 0 0 0 0 0 0 0 0 0 0 5 14 6 1 0 0 0 0 0 0 0
3949 2140 1066 574 132 48 379 74 4 0 0 0 17 148 24 1 0 0 0 0 0 0 0 0 0 0 0 0 0 0 0 0 10 6 6 4 0 0 0 0 0 0 0
2413 936 476 223 132 248 249 88 6 8 4 1 2 39 16 1 0 0 0 0 0 0 0 0 0 0 0 0 0 0 0 15 3 1 4 2 0 1 0 0 0 0 0
1411 520 306 340 244 320 366 117 2 0 0 4 7 0 0 1 0 0 0 0 0 0 0 0 0 0 0 0 12 16 17 1 0 6 9 6 1 1 0 0 0 0 0
991 405 285 316 314 236 14 5 1 0 0 0 0 0 4 0 0 0 0 0 0 0 0 0 0 0 0 1 10 21 37 17 4 11 11 6 0 1 1 0 0 0 0
1040 396 140 58 98 91 23 18 12 1 0 0 0 0 0 0 0 0 0 0 0 0 0 0 0 0 0 0 0 9 26 39 37 46 35 5 3 4 1 3 0 0 0
905 246 276 244 58 16 29 12 6 2 2 0 0 0 0 0 0 0 0 0 0 0 0 0 0 1 0 0 0 10 16 16 66 81 48 4 3 7 7 6 1 0 0
863 749 216 75 5 3 10 8 5 4 8 0 0 0 0 0 0 0 0 0 0 0 0 0 0 2 3 4 4 0 0 24 66 99 68 27 12 7 9 9 1 0 0
600 95 94 33 3 4 3 2 2 10 3 0 0 0 0 0 0 0 0 0 0 0 0 0 0 2 3 0 0 6 15 46 96 119 52 21 6 4 6 7 0 0 0
133 15 33 16 9 10 14 12 8 12 4 0 0 0 0 0 0 0 0 0 0 0 2 2 4 0 0 9 18 32 38 70 90 103 61 35 13 5 8 6 0 0 0
36 60 36 6 7 8 15 13 15 4 65 11 0 0 0 0 0 0 0 0 0 0 2 0 0 3 5 22 35 55 69 89 90 87 53 27 8 11 8 2 0 0 0
585 119 86 10 4 2 6 26 31 104 117 78 8 0 0 0 0 0 0 0 0 0 0 0 0 8 18 24 49 58 70 88 88 67 37 29 14 7 1 0 0 0 0
254 68 74 19 7 13 141 193 162 89 151 4 0 0 0 0 0 0 0 0 0 0 0 0 5 20 38 48 83 58 55 69 49 10 0 1 0 1 0 0 0 0 0
66 35 23 18 59 232 232 306 300 113 19 0 0 0 0 0 0 0 0 0 0 1 2 11 24 37 48 69 61 48 0 0 0 0 0 0 0 0 0 0 0 0 0
67 29 60 132 256 444 328 268 150 9 0 0 0 0 0 0 0 0 0 0 0 10 24 42 47 60 34 44 58 9 0 0 0 0 0 0 0 0 0 0 0 0 0